FENGYUN 1C DEB, 31523

Orbit data source: Space-Track

FENGYUN 1C DEB, 31523 is space debris in SSO originally from a launch on Mon, 10 May 1999 UTC launched from the Taiyaun Space Center, China (TSC). Fengyun 1C debris stems from the Chinese weather satellite Fengyun-1C, which was intentionally destroyed by a Chinese anti-satellite missile in 2007. This event dramatically increased the amount of space debris, with thousands of trackable fragments posing hazards to satellites and human spaceflight. The Fengyun 1C debris cloud has become a focal point in discussions about space sustainability and the need for international regulations to prevent the creation of new debris.

Loading next visibility...
Identifier
31523, 1999-025BXN
Orbit
SSO
Country
Flag of CNCN / PRC
Related business
Manufacturer
Unknown
Mission
Spacecraft
Bus & Motor
Unknown
Mass
Unknown
Launch date (UTC)
1999-05-10 (27 years ago)
Launch vehicle
Unknown
Launch site
Taiyaun Space Center, China (TSC)
Object type
Payload
Rocket body
Debris
Shape & HBR
Unknown shape, 0.1 m
Radar Cross Section
Small (<0.1 m²)

Expand to show TLE details & history
Last TLE update: 6 days ago

TLE from 6 days ago
0 FENGYUN 1C DEB
1 31523U 99025BXN 26163.38355622 -.00000006  00000-0  19533-4 0  9993
2 31523  98.7273 211.9238 0037546 314.1616 110.4391 14.13877512985746
Epoch: 2026-06-12T09:12Z
TLE epoch observation values (Epoch: 2026-06-12T09:12:19.257Z)
Latitude
63.70692°
Longitude
155.12716°
Altitude
866.625 km
Speed
7.42 km/s
True Right ascension
12h 55m 41s
True Declination
63° 34' 20"
Sunlit
Object was in daylight at epoch
Visualization orbit readout
Latitude
Unknown
Longitude
Unknown
Altitude
Unknown
Speed
Unknown
Apparent Right ascension
Unknown
Apparent Declination
Unknown
Sunlit
N/A
Visualization observer readout
Local Sidereal Time
07:53:56
Azimuth
Unknown
Elevation
Unknown
Doppler factor
Unknown
Orbital elements
Apogee altitude
870.414 km
Perigee altitude
816.187 km
Semi-major axis
7,221.438 km
Eccentricity
0.00375
Inclination
98.7273°
RAAN
211.9238°
Arg. of periapsis
314.1616°
True anomaly
110.8416°
Mean anomaly
110.4391°
Eccentric anomaly
110.64041°
Mean motion
3.53678 °/min
Orbital period
101.79 mins
BSTAR
0.000019533
Loading maneuver chart data...
Computing Atmospheric mass density...
Loading historical data...
Loading historical data...
Loading historical data...
Loading historical data...
Loading historical data...
Loading historical data...
Loading historical data...

Documentation

Showing up to 5 results
|